* Astronomy

Members Login
Username 
 
Password 
    Remember Me  
Post Info TOPIC: Asteroid 2011 CF66


L

Posts: 131433
Date:
Asteroid 2011 CF66
Permalink  
 


Orbital elements:
2011 CF66 Earth MOID = 0.0026 AU
Epoch 2011 Feb. 8.0 TT = JDT 2455600.5 MPC
M 281.48929 (2000.0) P Q
n 0.95687477 Peri. 274.21342 -0.27732892 +0.96075661
a 1.0199197 Node 339.68270 -0.87455535 -0.25500115
e 0.3137055 Incl. 0.98203 -0.39779593 -0.10918406
P 1.03 H 27.4 G 0.15 U 9

MPEC 2011 - C94


__________________
Page 1 of 1  sorted by
 
Quick Reply

Please log in to post quick replies.



Create your own FREE Forum
Report Abuse
Powered by ActiveBoard